Location: Cornospital
(48.0620°N, 3.3837°W)
Time: 20:15:04
(UTC+00:00)

Iridium 2 - Pass Details

Date: 17 June 2021
Orbit: 502 x 511 km, 85.5° (Epoch: 02 August)

Event Time Altitude Azimuth Distance (km) Brightness Sun altitude
Exits shadow 23:05:30 39° 161° (SSE) 772 4.0 -16.9°
Maximum altitude 23:06:44 68° 92° (E) 552 3.7 -16.9°
Drops below altitude 10° 23:10:29 10° 10° (N) 1,729 7.4 -17.1°
Sets 23:12:36 0° 8° (N) 2,617 8.6 -17.2°
